Location: Bosdarros
(43.2167°N, 0.3667°W)
Time: 03:33:59
(UTC+00:00)

ARIANE 5 R/B - Pass Details

Date: 22 April 2021
Orbit: 620 x 656 km, 98.1° (Epoch: 11 May)

Event Time Altitude Azimuth Distance (km) Brightness Sun altitude
Exits shadow 20:04:04 13° 85° (E) 1,827 4.5 -12.6°
Maximum altitude 20:05:35 15° 62° (ENE) 1,702 4.5 -12.9°
Drops below altitude 10° 20:08:05 10° 27° (NNE) 2,017 5.2 -13.3°
Sets 20:11:05 0° 5° (N) 2,923 6.4 -13.7°
